This demonstration page uses our WeatherBlox Daily Observations layout. Learn more.

Left ArrowRight Arrow

39.29038, -76.61219

Hourly Observations for May 20, 2022

Temp ( °F °C ) Dew Point ( °F °C ) Humidity (%) Winds ( mph kmh ) Pressure ( in mb ) Visibility ( mi km ) Precip ( " mm )
12:54 am 00:54 Mostly Clear 66 18.9 57 13.9 73 73 Calm 29.81 1010 10 16 0.00 0.00
1:54 am 01:54 Partly Cloudy 65 18.3 57 13.9 76 76 Calm 29.79 1009 10 16 0.00 0.00
2:54 am 02:54 Mostly Cloudy 63 17.2 57 13.9 81 81 Calm 29.80 1009 10 16 0.00 0.00
3:54 am 03:54 Mostly Cloudy 60 15.6 57 13.9 90 90 Calm 29.82 1010 10 16 0.00 0.00
4:54 am 04:54 Mostly Cloudy 61 16.1 57 13.9 87 87 Calm 29.83 1010 10 16 0.00 0.00
5:54 am 05:54 Mostly Cloudy 61 16.1 58 14.4 90 90 Calm 29.84 1011 10 16 0.00 0.00
6:54 am 06:54 Mostly Cloudy 64 17.8 58 14.4 81 81 Calm 29.87 1012 10 16 0.00 0.00
7:54 am 07:54 Mostly Cloudy 68 20 61 16.1 78 78 NW 7 11 29.91 1013 10 16 0.00 0.00
8:54 am 08:54 Mostly Cloudy 73 22.8 63 17.2 71 71 ESE 7 11 29.88 1012 10 16 0.00 0.00
9:54 am 09:54 Mostly Cloudy 78 25.6 65 18.3 64 64 VRB 6 9 29.88 1012 10 16 0.00 0.00
10:54 am 10:54 Mostly Cloudy 80 26.7 65 18.3 60 60 SE 6 9 29.88 1012 10 16 0.00 0.00
11:54 am 11:54 Mostly Cloudy 83 28.3 67 19.4 59 59 ESE 10 17 29.87 1011 10 16 0.00 0.00
12:54 pm 12:54 Mostly Cloudy 85 29.4 69 20.6 59 59 SSE 8 13 29.85 1011 10 16 0.00 0.00
1:54 pm 13:54 Mostly Cloudy 88 31.1 69 20.6 54 54 SSW 8 13 29.85 1011 10 16 0.00 0.00
2:54 pm 14:54 Mostly Cloudy 89 31.7 70 21.1 53 53 SSW 7 11 29.84 1011 10 16 0.00 0.00
3:54 pm 15:54 Mostly Cloudy 89 31.7 70 21.1 53 53 S 13 20 29.83 1010 10 16 0.00 0.00
4:54 pm 16:54 Mostly Cloudy 87 30.6 68 20 53 53 SSW 7 11 29.83 1010 10 16 0.00 0.00
5:54 pm 17:54 Mostly Cloudy 87 30.6 69 20.6 55 55 SE 5 7 29.82 1010 10 16 0.00 0.00
6:54 pm 18:54 Mostly Cloudy 85 29.4 72 22.2 65 65 SSE 6 9 29.83 1010 8 13 0.00 0.00
7:54 pm 19:54 Mostly Cloudy 83 28.3 70 21.1 65 65 SE 5 7 29.83 1010 8 13 0.00 0.00
8:54 pm 20:54 Mostly Cloudy 81 27.2 70 21.1 69 69 Calm 29.84 1011 7 11 0.00 0.00
9:54 pm 21:54 Mostly Cloudy 80 26.7 70 21.1 71 71 Calm 29.85 1011 8 13 0.00 0.00
10:54 pm 22:54 Mostly Cloudy 83 28.3 67 19.4 59 59 SW 8 13 29.86 1011 8 13 0.00 0.00
11:54 pm 23:54 Mostly Cloudy 85 29.4 67 19.4 55 55 SW 10 17 29.86 1011 8 13 0.00 0.00

Powered by AerisWeather